Location: Prairie State College
(41.5244°N, 87.6382°W)
Time: 14:17:28
(UTC-06:00)

Amateur Radio Satellites - All Passes

Search period start: 25 January 2015 13:47
Search period end: 26 January 2015 13:47
Location: Prairie State College, 41.5244°N, 87.6382°W

Satellite Date Start Highest point End Downlink Frequencies (MHz)
Time Altitude Azimuth
Gurwin Techsat 1B 25 Jan 14:02:02 14:07:15 57° 260° (W) 14:12:30 435.225
AIST 2 25 Jan 14:05:02 14:07:07 13° 250° (WSW) 14:08:59 435.215
HORYU 2 25 Jan 14:06:27 14:10:51 55° 73° (ENE) 14:15:17 437.375
CUSAT 1 25 Jan 14:28:13 14:34:00 28° 63° (ENE) 14:38:44 437.405
AO-7 25 Jan 14:37:48 14:46:01 66° 68° (ENE) 14:54:20 29.400- 29.500
VERMONT LUNAR 25 Jan 14:39:47 14:43:03 34° 201° (SSW) 14:46:17 437.305
RS-15 25 Jan 14:40:13 14:51:38 82° 239° (WSW) 15:03:32 29.354- 29.394
SWISSCUBE 25 Jan 14:48:08 14:51:21 18° 296° (WNW) 14:54:25 437.505
JAS-2 25 Jan 14:55:55 15:00:41 30° 68° (ENE) 15:05:16 435.910
KKS-1 25 Jan 14:56:35 15:01:02 60° 286° (WNW) 15:05:26 437.445
PCSat 25 Jan 14:57:34 15:02:38 40° 248° (WSW) 15:07:38 145.827
M-CUBED/EXP-1 PRIME 25 Jan 14:57:49 15:00:52 34° 103° (ESE) 15:03:59 437.505
STARS 25 Jan 14:59:48 15:04:18 84° 281° (W) 15:08:45 437.465
BEESAT 25 Jan 15:05:33 15:07:55 13° 298° (WNW) 15:10:03 436.000
ITUPSAT 1 25 Jan 15:06:42 15:09:04 13° 298° (WNW) 15:11:13 437.325
PHONESAT 2.4 25 Jan 15:13:28 15:16:50 35° 202° (SSW) 15:20:12 2401.200-2431.200
DANDE 25 Jan 15:18:48 15:26:08 62° 75° (ENE) 15:31:38 436.750
AUBIESAT-1 25 Jan 15:34:27 15:37:46 79° 291° (WNW) 15:41:07 437.475
HORYU 2 25 Jan 15:45:24 15:47:56 14° 270° (W) 15:50:17 437.375
MOZHAYETS 4 25 Jan 16:05:19 16:09:16 29° 95° (E) 16:13:17
O/OREOS (USA 219) 25 Jan 16:08:51 16:12:47 31° 105° (ESE) 16:16:47 437.305
CUSAT 1 25 Jan 16:11:02 16:17:25 43° 270° (W) 16:22:14 437.405
AO-7 25 Jan 16:32:28 16:39:29 28° 267° (W) 16:46:17 29.400- 29.500
M-CUBED/EXP-1 PRIME 25 Jan 16:34:02 16:35:41 13° 298° (WNW) 16:37:11 437.505
Cubesat XI-IV 25 Jan 16:40:26 16:45:21 40° 69° (ENE) 16:50:20 437.490
JAS-2 25 Jan 16:40:39 16:45:49 34° 263° (W) 16:50:36 435.910
RS-15 25 Jan 16:54:52 17:02:42 20° 258° (WSW) 17:09:59 29.354- 29.394
CUTE-I 25 Jan 17:01:19 17:06:32 61° 73° (ENE) 17:11:49 437.470
DANDE 25 Jan 17:03:35 17:08:41 21° 279° (W) 17:12:45 436.750
MOZHAYETS 4 25 Jan 17:42:35 17:46:28 27° 291° (WNW) 17:50:18
CUBESAT XI-V 25 Jan 17:45:59 17:49:51 26° 94° (E) 17:53:48 437.345
O/OREOS (USA 219) 25 Jan 17:48:25 17:52:14 26° 302° (WNW) 17:56:01 437.305
STRAND 1 25 Jan 17:50:42 17:54:30 21° 92° (E) 17:58:27 437.568
PRISM 25 Jan 17:56:28 18:00:26 44° 99° (E) 18:04:26 437.425
Cubesat XI-IV 25 Jan 18:21:10 18:25:37 26° 266° (W) 18:29:59 437.490
YUBILEINY 25 Jan 18:31:16 18:37:57 27° 83° (E) 18:44:56 435.215
CUTE-I 25 Jan 18:43:39 18:47:08 17° 270° (W) 18:50:25 437.470
BRITE-PL 25 Jan 18:56:47 19:01:06 31° 68° (ENE) 19:05:46 437.365/2234.400
HO-68 25 Jan 18:59:35 19:06:11 43° 65° (ENE) 19:12:51 435.675
SEEDS 25 Jan 19:03:52 19:06:55 20° 68° (ENE) 19:10:04 437.485
SO-50 25 Jan 19:04:23 19:08:51 34° 48° (NE) 19:13:21 436.795
GOMX 1 25 Jan 19:12:55 19:17:17 32° 68° (ENE) 19:21:58 467.674
CUBESAT XI-V 25 Jan 19:23:10 19:27:21 32° 290° (WNW) 19:31:30 437.345
STRAND 1 25 Jan 19:29:03 19:33:59 46° 289° (WNW) 19:38:53 437.568
PRISM 25 Jan 19:33:04 19:35:40 16° 294° (WNW) 19:38:09 437.425
COMPASS 1 25 Jan 19:35:23 19:39:14 35° 72° (ENE) 19:43:07 437.405
CANX-2 25 Jan 19:37:07 19:41:21 58° 74° (ENE) 19:45:35 2200.000
DOVE 4 25 Jan 19:43:48 19:48:29 45° 72° (ENE) 19:53:28 437.250
Oscar 11 25 Jan 19:49:53 19:53:18 23° 68° (ENE) 19:56:47 145.826/435.025
CINEMA 3 25 Jan 20:00:52 20:05:22 39° 71° (ENE) 20:10:03 145.822/145.860
CUTE 1.7 + AOD 2 25 Jan 20:01:49 20:06:08 82° 258° (WSW) 20:10:27 437.475
CUBEBUG 2 25 Jan 20:03:59 20:07:48 25° 68° (ENE) 20:11:45 437.445
AAUSAT CUBESAT 2 25 Jan 20:04:27 20:08:38 66° 75° (ENE) 20:12:49 437.432
UKube-1 25 Jan 20:22:32 20:26:21 31° 69° (ENE) 20:30:14 .
DELFI C3 25 Jan 20:22:49 20:26:39 40° 72° (ENE) 20:30:31 145.870
YUBILEINY 25 Jan 20:25:33 20:34:11 65° 282° (WNW) 20:42:50 435.215
ZACube-1 25 Jan 20:29:00 20:33:01 31° 70° (ENE) 20:37:06 437.345
BRITE-PL 25 Jan 20:35:12 20:39:36 32° 267° (W) 20:44:15 437.365/2234.400
DX 1 25 Jan 20:38:08 20:42:18 48° 72° (ENE) 20:46:32 434.975-435.025
SEEDS 25 Jan 20:38:34 20:42:33 37° 263° (W) 20:46:30 437.485
FUNcube-1 25 Jan 20:42:01 20:46:18 41° 72° (ENE) 20:50:40 145.935
AISAT 25 Jan 20:44:30 20:47:53 22° 67° (ENE) 20:51:22 437.250
SO-50 25 Jan 20:44:58 20:49:26 34° 245° (WSW) 20:53:48 436.795
HO-68 25 Jan 20:47:24 20:53:59 38° 263° (W) 21:00:31 435.675
GOMX 1 25 Jan 20:50:59 20:55:23 31° 267° (W) 21:00:00 467.674
UWE-3 25 Jan 20:51:38 20:56:14 64° 74° (ENE) 21:00:55 435.000/436.395/437.385
HUMSAT D 25 Jan 21:03:05 21:07:06 38° 72° (ENE) 21:11:11 437.325/437.525
COMPASS 1 25 Jan 21:11:57 21:15:07 19° 268° (W) 21:18:09 437.405
VELOX 1 25 Jan 21:14:01 21:18:10 42° 71° (ENE) 21:22:24 145.980
CANX-2 25 Jan 21:15:49 21:17:45 12° 272° (W) 21:19:28 2200.000
50 SAT 25 Jan 21:15:51 21:19:42 38° 72° (ENE) 21:23:35 437.505
DOVE 4 25 Jan 21:22:43 21:26:33 21° 270° (W) 21:30:24 437.250
Oscar 11 25 Jan 21:25:25 21:29:22 32° 264° (W) 21:33:15 145.826/435.025
CUBEBUG 1 25 Jan 21:35:01 21:38:43 28° 69° (ENE) 21:42:30 437.445
CINEMA 3 25 Jan 21:38:46 21:42:44 24° 268° (W) 21:46:42 145.822/145.860
UNISAT 6 25 Jan 21:38:55 21:42:12 20° 92° (E) 21:45:32 437.425
CUBEBUG 2 25 Jan 21:40:02 21:44:21 35° 264° (W) 21:48:45 437.445
AAUSAT CUBESAT 2 25 Jan 21:44:01 21:44:50 10° 273° (W) 21:45:23 437.432
NANOSAT C BR1 25 Jan 21:46:10 21:48:18 14° 89° (E) 21:50:38 145.865
QB50P2 25 Jan 21:57:28 22:00:29 19° 92° (E) 22:03:38 145.880/145.840
UKube-1 25 Jan 21:59:05 22:02:35 23° 266° (W) 22:06:01 .
DELFI C3 25 Jan 21:59:31 22:02:08 16° 269° (W) 22:04:36 145.870
ZACube-1 25 Jan 22:05:30 22:09:25 26° 266° (W) 22:13:16 437.345
QB50P1 25 Jan 22:07:52 22:11:22 24° 94° (E) 22:14:55 145.935-145.965
ESTCUBE 1 25 Jan 22:10:01 22:14:29 74° 75° (ENE) 22:19:00 437.505/2401.250
ANTELSAT 25 Jan 22:13:50 22:18:12 48° 99° (E) 22:22:27 437.575/2403.000
DX 1 25 Jan 22:16:16 22:18:54 15° 269° (W) 22:21:22 434.975-435.025
FUNcube-1 25 Jan 22:19:28 22:22:52 20° 269° (W) 22:26:10 145.935
POLYITAN 1 25 Jan 22:19:39 22:23:34 33° 96° (E) 22:27:29 437.675
AISAT 25 Jan 22:20:14 22:24:20 36° 263° (W) 22:28:27 437.250
TIGRISAT 25 Jan 22:23:54 22:28:23 61° 100° (E) 22:32:43 435.000
TISAT 1 25 Jan 22:27:10 22:30:35 25° 69° (ENE) 22:34:07 437.305
YUBILEINY 25 Jan 22:29:26 22:33:15 13° 306° (NW) 22:36:28 435.215
UWE-3 25 Jan 22:30:58 22:33:19 13° 272° (W) 22:35:26 435.000/436.395/437.385
BUGSAT 1 25 Jan 22:39:52 22:43:57 42° 98° (E) 22:48:02 437.445
HUMSAT D 25 Jan 22:39:53 22:43:06 19° 268° (W) 22:46:10 437.325/437.525
AIST 1 25 Jan 22:40:21 22:44:42 84° 81° (E) 22:49:04
POPSAT HIP 1 25 Jan 22:41:36 22:45:53 57° 101° (E) 22:50:07 437.405
DUCHIFAT 1 25 Jan 22:46:35 22:50:54 65° 101° (ESE) 22:55:09 145.980
VELOX 1 25 Jan 22:51:57 22:55:01 18° 269° (W) 22:57:58 145.980
50 SAT 25 Jan 22:52:13 22:55:02 17° 269° (W) 22:57:44 437.505
ISS 25 Jan 22:56:43 22:59:57 60° 141° (SE) 23:03:13 145.825
BEESAT 25 Jan 22:59:43 23:00:01 10° 60° (ENE) 23:00:34 436.000
ITUPSAT 1 25 Jan 23:00:54 23:01:24 10° 60° (ENE) 23:02:10 437.325
SPROUT 25 Jan 23:11:22 23:15:41 77° 75° (ENE) 23:20:01 437.525
CUBEBUG 1 25 Jan 23:11:27 23:15:06 26° 266° (W) 23:18:43 437.445
UNISAT 6 25 Jan 23:15:01 23:19:12 37° 290° (WNW) 23:23:14 437.425
NANOSAT C BR1 25 Jan 23:20:22 23:24:34 52° 287° (WNW) 23:28:44 145.865
QB50P2 25 Jan 23:32:35 23:36:36 38° 289° (WNW) 23:40:33 145.880/145.840
QB50P1 25 Jan 23:43:30 23:47:18 30° 290° (WNW) 23:51:00 145.935-145.965
ESTCUBE 1 25 Jan 23:51:21 23:52:01 10° 273° (W) 23:52:22 437.505/2401.250
ANTELSAT 25 Jan 23:51:40 23:54:39 17° 295° (WNW) 23:57:26 437.575/2403.000
POLYITAN 1 25 Jan 23:55:56 23:59:23 22° 292° (WNW) 00:02:41 437.675
Oscar 19 25 Jan 23:59:25 00:00:26 11° 86° (E) 00:01:49 437.125/150
TIGRISAT 26 Jan 00:02:14 00:04:40 14° 297° (WNW) 00:06:52 435.000
TISAT 1 26 Jan 00:02:40 00:06:21 28° 265° (W) 00:10:02 437.305
SWISSCUBE 26 Jan 00:15:55 00:20:36 63° 74° (ENE) 00:25:20 437.505
BUGSAT 1 26 Jan 00:16:13 00:19:10 18° 294° (WNW) 00:22:01 437.445
POPSAT HIP 1 26 Jan 00:19:03 00:21:22 14° 296° (WNW) 00:23:30 437.405
KKS-1 26 Jan 00:21:00 00:23:02 13° 63° (ENE) 00:25:17 437.445
DUCHIFAT 1 26 Jan 00:24:21 00:26:17 12° 296° (WNW) 00:28:00 145.980
GONETS M04 26 Jan 00:32:05 00:39:41 36° 86° (E) 00:47:26
BEESAT 26 Jan 00:32:26 00:37:11 85° 79° (ENE) 00:42:00 436.000
ITUPSAT 1 26 Jan 00:33:52 00:38:38 86° 75° (ENE) 00:43:25 437.325
ISS 26 Jan 00:33:55 00:36:41 24° 339° (NNW) 00:39:28 145.825
AUBIESAT-1 26 Jan 00:50:53 00:52:37 13° 62° (ENE) 00:54:27 437.475
Oscar 19 26 Jan 01:35:25 01:40:37 86° 285° (WNW) 01:45:45 437.125/150
ITAMSAT 1 26 Jan 01:43:10 01:48:03 39° 97° (E) 01:52:57 435.822/435.867
M-CUBED/EXP-1 PRIME 26 Jan 01:46:44 01:50:52 60° 70° (ENE) 01:54:41 437.505
KKS-1 26 Jan 01:54:45 01:59:12 66° 258° (WSW) 02:03:42 437.445
SWISSCUBE 26 Jan 01:56:29 01:59:00 14° 271° (W) 02:01:17 437.505
STARS 26 Jan 01:56:50 02:01:16 87° 76° (ENE) 02:05:46 437.465
HORYU 2 26 Jan 02:01:05 02:01:28 10° 87° (E) 02:02:09 437.375
ISS 26 Jan 02:12:11 02:14:04 14° 359° (N) 02:15:58 145.825
Gurwin Techsat 1B 26 Jan 02:17:59 02:23:14 58° 100° (E) 02:28:28 435.225
O/OREOS (USA 219) 26 Jan 02:18:01 02:22:36 63° 65° (ENE) 02:27:10 437.305
AUBIESAT-1 26 Jan 02:23:10 02:27:17 56° 254° (WSW) 02:31:03 437.475
AIST 2 26 Jan 02:25:24 02:27:14 13° 110° (ESE) 02:29:18 435.215
GONETS M04 26 Jan 02:27:50 02:36:19 50° 285° (WNW) 02:44:45
AO-7 26 Jan 02:40:46 02:46:15 20° 89° (E) 02:52:10 29.400- 29.500
BEESAT 2 26 Jan 02:46:39 02:50:39 51° 118° (ESE) 02:54:42 435.950
DANDE 26 Jan 02:48:49 02:53:08 16° 79° (E) 02:58:10 436.750
RS-15 26 Jan 03:00:18 03:03:38 12° 98° (E) 03:08:03 29.354- 29.394
BEESAT 3 26 Jan 03:04:29 03:08:35 89° 301° (WNW) 03:12:46 437.485
MOZHAYETS 4 26 Jan 03:07:39 03:11:33 29° 69° (ENE) 03:15:31
Oscar 19 26 Jan 03:17:23 03:19:16 12° 301° (WNW) 03:20:52 437.125/150
ITAMSAT 1 26 Jan 03:23:03 03:27:24 27° 294° (WNW) 03:31:40 435.822/435.867
M-CUBED/EXP-1 PRIME 26 Jan 03:24:45 03:26:09 11° 264° (W) 03:27:18 437.505
CUSAT 1 26 Jan 03:33:59 03:41:09 40° 89° (E) 03:48:57 437.405
HORYU 2 26 Jan 03:34:18 03:38:47 73° 285° (WNW) 03:43:11 437.375
JAS-2 26 Jan 03:47:51 03:52:29 27° 95° (E) 03:57:39 435.910
ISS 26 Jan 03:48:47 03:51:28 22° 19° (NNE) 03:54:11 145.825
PCSat 26 Jan 03:56:50 04:01:09 25° 109° (ESE) 04:05:36 145.827
Gurwin Techsat 1B 26 Jan 03:59:02 04:02:49 20° 297° (WNW) 04:06:27 435.225
O/OREOS (USA 219) 26 Jan 03:59:24 04:01:32 13° 260° (W) 04:03:26 437.305
AIST 2 26 Jan 04:01:11 04:05:25 64° 306° (NW) 04:09:42 435.215
BEESAT 2 26 Jan 04:26:09 04:29:11 19° 317° (NW) 04:32:11 435.950
DANDE 26 Jan 04:27:28 04:35:20 77° 97° (E) 04:44:05 436.750
AO-7 26 Jan 04:31:47 04:40:11 85° 289° (WNW) 04:48:30 29.400- 29.500
YUBILEINY 26 Jan 04:41:40 04:44:58 13° 54° (NE) 04:48:55 435.215
MOZHAYETS 4 26 Jan 04:44:47 04:48:47 28° 266° (W) 04:52:43
BEESAT 3 26 Jan 04:45:28 04:47:25 13° 322° (NW) 04:49:16 437.485
PRISM 26 Jan 04:47:24 04:51:07 34° 71° (ENE) 04:54:52 437.425
CUBESAT XI-V 26 Jan 04:49:55 04:53:40 26° 68° (ENE) 04:57:31 437.345
Cubesat XI-IV 26 Jan 04:58:44 05:01:47 16° 89° (E) 05:05:05 437.490
RS-15 26 Jan 05:03:25 05:14:07 66° 116° (ESE) 05:24:58 29.354- 29.394
STRAND 1 26 Jan 05:06:39 05:11:04 31° 68° (ENE) 05:15:35 437.568
CUSAT 1 26 Jan 05:16:21 05:24:07 50° 288° (WNW) 05:32:17 437.405
CUTE-I 26 Jan 05:18:55 05:23:10 24° 93° (E) 05:27:32 437.470
ISS 26 Jan 05:24:58 05:28:17 73° 218° (SW) 05:31:34 145.825
JAS-2 26 Jan 05:32:34 05:37:46 43° 289° (WNW) 05:43:28 435.910
PCSat 26 Jan 05:39:07 05:44:20 46° 306° (NW) 05:49:34 145.827
AIST 2 26 Jan 05:43:58 05:44:58 11° 326° (NW) 05:45:47 435.215
DANDE 26 Jan 06:13:00 06:19:49 27° 298° (WNW) 06:26:45 436.750
PRISM 26 Jan 06:23:45 06:26:47 19° 267° (W) 06:29:42 437.425
AO-7 26 Jan 06:26:07 06:31:58 21° 308° (NW) 06:37:28 29.400- 29.500
CUBESAT XI-V 26 Jan 06:26:54 06:31:02 32° 265° (W) 06:35:08 437.345
YUBILEINY 26 Jan 06:35:20 06:44:04 65° 78° (ENE) 06:52:48 435.215
Cubesat XI-IV 26 Jan 06:37:07 06:42:28 67° 287° (WNW) 06:47:48 437.490
STRAND 1 26 Jan 06:45:44 06:50:16 31° 265° (W) 06:54:46 437.568
CUTE-I 26 Jan 06:58:23 07:03:28 44° 290° (WNW) 07:08:32 437.470
BRITE-PL 26 Jan 07:03:28 07:05:20 12° 84° (E) 07:07:32 437.365/2234.400
CUSAT 1 26 Jan 07:07:10 07:09:32 11° 310° (NW) 07:11:18 437.405
RS-15 26 Jan 07:17:04 07:27:15 41° 321° (NW) 07:37:31 29.354- 29.394
GOMX 1 26 Jan 07:17:55 07:18:31 10° 83° (E) 07:19:31 467.674
DOVE 4 26 Jan 07:44:55 07:47:24 14° 86° (E) 07:50:07 437.250
CUTE 1.7 + AOD 2 26 Jan 07:48:21 07:51:03 17° 91° (E) 07:53:52 437.475
AAUSAT CUBESAT 2 26 Jan 07:50:57 07:51:17 10° 87° (E) 07:51:54 437.432
HO-68 26 Jan 08:14:10 08:20:53 43° 98° (E) 08:27:38 435.675
SEEDS 26 Jan 08:23:01 08:26:52 34° 96° (E) 08:30:42 437.485
YUBILEINY 26 Jan 08:33:13 08:40:18 27° 277° (W) 08:47:07 435.215
UNISAT 6 26 Jan 08:38:13 08:41:40 21° 67° (ENE) 08:45:15 437.425
BRITE-PL 26 Jan 08:39:00 08:44:45 88° 99° (E) 08:50:19 437.365/2234.400
NANOSAT C BR1 26 Jan 08:40:26 08:41:52 12° 63° (ENE) 08:43:31 145.865
UWE-3 26 Jan 08:43:52 08:45:51 13° 87° (E) 08:48:02 435.000/436.395/437.385
QB50P2 26 Jan 08:51:32 08:54:04 16° 65° (ENE) 08:56:46 145.880/145.840
GOMX 1 26 Jan 08:52:05 08:57:37 84° 101° (E) 09:02:55 467.674
COMPASS 1 26 Jan 08:54:21 08:58:31 67° 101° (E) 09:02:39 437.405
CANX-2 26 Jan 08:58:21 09:02:35 70° 285° (WNW) 09:06:46 2200.000
QB50P1 26 Jan 09:01:32 09:04:35 20° 67° (ENE) 09:07:45 145.935-145.965
VERMONT LUNAR 26 Jan 09:04:49 09:07:10 17° 151° (SSE) 09:09:35 437.305
Oscar 11 26 Jan 09:12:18 09:16:26 43° 98° (E) 09:20:33 145.826/435.025
ANTELSAT 26 Jan 09:12:43 09:17:12 45° 72° (ENE) 09:21:44 437.575/2403.000
POLYITAN 1 26 Jan 09:13:21 09:16:55 27° 69° (ENE) 09:20:36 437.675
DOVE 4 26 Jan 09:20:34 09:25:52 72° 285° (WNW) 09:30:54 437.250
TIGRISAT 26 Jan 09:22:23 09:26:59 56° 74° (ENE) 09:31:38 435.000
CUTE 1.7 + AOD 2 26 Jan 09:23:14 09:27:14 40° 288° (WNW) 09:31:10 437.475
AAUSAT CUBESAT 2 26 Jan 09:23:22 09:27:30 65° 285° (WNW) 09:31:35 437.432
BUGSAT 1 26 Jan 09:30:38 09:34:10 29° 70° (ENE) 09:37:49 437.445
CUBEBUG 2 26 Jan 09:31:09 09:35:40 50° 98° (E) 09:40:02 437.445
CINEMA 3 26 Jan 09:32:51 09:37:49 89° 125° (SE) 09:42:33 145.822/145.860
POPSAT HIP 1 26 Jan 09:34:43 09:38:45 44° 72° (ENE) 09:42:52 437.405
RS-15 26 Jan 09:35:51 09:43:47 21° 354° (N) 09:51:49 29.354- 29.394
DELFI C3 26 Jan 09:37:53 09:41:56 71° 101° (E) 09:45:57 145.870
DUCHIFAT 1 26 Jan 09:39:21 09:43:27 49° 73° (ENE) 09:47:36 145.980
PHONESAT 2.4 26 Jan 09:43:21 09:45:59 19° 151° (SSE) 09:48:41 2401.200-2431.200
UKube-1 26 Jan 09:45:39 09:49:57 57° 101° (E) 09:54:15 .
ZACube-1 26 Jan 09:53:38 09:58:06 62° 100° (E) 10:02:25 437.345
SEEDS 26 Jan 09:59:22 10:02:31 20° 292° (WNW) 10:05:32 437.485
HO-68 26 Jan 10:02:03 10:08:34 38° 296° (WNW) 10:14:59 435.675
DX 1 26 Jan 10:02:20 10:06:46 90° 287° (WNW) 10:11:10 434.975-435.025
ESTCUBE 1 26 Jan 10:04:04 10:06:41 16° 90° (E) 10:09:30 437.505/2401.250
FUNcube-1 26 Jan 10:06:45 10:11:15 85° 102° (ESE) 10:15:36 145.935
AISAT 26 Jan 10:10:50 10:15:07 42° 98° (E) 10:19:25 437.250
NANOSAT C BR1 26 Jan 10:13:00 10:17:14 69° 258° (WSW) 10:21:32 145.865
UNISAT 6 26 Jan 10:13:43 10:18:13 43° 262° (W) 10:22:43 437.425
UWE-3 26 Jan 10:18:25 10:22:56 59° 286° (WNW) 10:27:17 435.000/436.395/437.385
BRITE-PL 26 Jan 10:19:22 10:22:32 15° 299° (WNW) 10:25:24 437.365/2234.400
HUMSAT D 26 Jan 10:22:58 10:27:15 72° 101° (E) 10:31:26 437.325/437.525
QB50P2 26 Jan 10:25:30 10:29:39 48° 261° (W) 10:33:50 145.880/145.840
50 SAT 26 Jan 10:30:06 10:34:10 64° 102° (ESE) 10:38:10 437.505
GOMX 1 26 Jan 10:32:03 10:35:03 15° 299° (WNW) 10:37:45 467.674
COMPASS 1 26 Jan 10:32:19 10:33:46 11° 296° (WNW) 10:34:59 437.405
QB50P1 26 Jan 10:36:17 10:40:15 37° 263° (W) 10:44:15 145.935-145.965
VELOX 1 26 Jan 10:40:46 10:45:18 86° 100° (E) 10:49:48 145.980
VERMONT LUNAR 26 Jan 10:41:28 10:44:53 53° 166° (SSE) 10:48:21 437.305
GONETS M04 26 Jan 10:42:31 10:47:39 17° 58° (ENE) 10:53:14
AIST 2 26 Jan 10:46:00 10:48:00 13° 37° (NE) 10:50:09 435.215
POLYITAN 1 26 Jan 10:49:08 10:52:50 27° 265° (W) 10:56:31 437.675
Oscar 11 26 Jan 10:49:25 10:52:19 17° 294° (WNW) 10:55:06 145.826/435.025
ANTELSAT 26 Jan 10:50:51 10:54:16 19° 269° (W) 10:57:33 437.575/2403.000
SO-50 26 Jan 10:59:04 11:03:37 80° 122° (ESE) 11:08:21 436.795
CUBEBUG 1 26 Jan 10:59:25 11:03:48 56° 100° (E) 11:08:11 437.445
SPROUT 26 Jan 10:59:47 11:01:54 14° 89° (E) 11:04:13 437.525
TIGRISAT 26 Jan 11:01:16 11:04:09 15° 271° (W) 11:06:51 435.000
BUGSAT 1 26 Jan 11:06:31 11:09:45 22° 267° (W) 11:12:56 437.445
BEESAT 2 26 Jan 11:06:31 11:10:22 35° 50° (NE) 11:14:12 435.950
CUBEBUG 2 26 Jan 11:08:55 11:11:59 17° 295° (WNW) 11:14:51 437.445
AIST 1 26 Jan 11:10:06 11:14:11 48° 94° (E) 11:18:19
POPSAT HIP 1 26 Jan 11:12:11 11:14:57 16° 269° (W) 11:17:34 437.405
CINEMA 3 26 Jan 11:12:39 11:14:17 11° 300° (WNW) 11:15:39 145.822/145.860
Oscar 19 26 Jan 11:15:14 11:18:38 18° 63° (ENE) 11:22:12 437.125/150
DELFI C3 26 Jan 11:16:07 11:16:41 10° 297° (WNW) 11:17:01 145.870
DUCHIFAT 1 26 Jan 11:17:13 11:19:40 14° 270° (W) 11:21:56 145.980
PHONESAT 2.4 26 Jan 11:20:37 11:24:11 57° 167° (SSE) 11:27:47 2401.200-2431.200
UKube-1 26 Jan 11:23:16 11:25:43 14° 296° (WNW) 11:27:59 .
BEESAT 3 26 Jan 11:23:57 11:28:04 58° 54° (NE) 11:32:07 437.485
ZACube-1 26 Jan 11:31:40 11:33:59 14° 296° (WNW) 11:36:06 437.345
ESTCUBE 1 26 Jan 11:39:32 11:43:56 50° 287° (WNW) 11:48:19 437.505/2401.250
FUNcube-1 26 Jan 11:46:20 11:46:58 10° 299° (WNW) 11:47:20 145.935
TISAT 1 26 Jan 11:46:52 11:50:59 43° 99° (E) 11:55:06 437.305
AISAT 26 Jan 11:48:11 11:51:30 20° 294° (WNW) 11:54:41 437.250
RS-15 26 Jan 11:51:39 12:01:05 30° 28° (NNE) 12:11:04 29.354- 29.394
HUMSAT D 26 Jan 12:01:11 12:02:31 11° 297° (WNW) 12:03:37 437.325/437.525
Gurwin Techsat 1B 26 Jan 12:03:05 12:05:13 13° 60° (ENE) 12:07:37 435.225
50 SAT 26 Jan 12:07:27 12:08:49 11° 296° (WNW) 12:09:58 437.505
SWISSCUBE 26 Jan 12:17:33 12:20:23 16° 90° (E) 12:23:24 437.505
VERMONT LUNAR 26 Jan 12:19:25 12:22:56 76° 184° (S) 12:26:28 437.305
VELOX 1 26 Jan 12:20:29 12:21:17 10° 299° (WNW) 12:21:50 145.980
AIST 2 26 Jan 12:23:02 12:27:21 87° 56° (NE) 12:31:35 435.215
BEESAT 26 Jan 12:33:26 12:37:01 21° 93° (E) 12:40:44 436.000
SPROUT 26 Jan 12:34:09 12:38:24 53° 286° (WNW) 12:42:38 437.525
ITUPSAT 1 26 Jan 12:35:11 12:38:50 22° 93° (E) 12:42:35 437.325
CUBEBUG 1 26 Jan 12:37:12 12:39:47 15° 295° (WNW) 12:42:11 437.445
GONETS M04 26 Jan 12:37:24 12:46:09 83° 81° (E) 12:54:52
SO-50 26 Jan 12:41:44 12:44:50 17° 322° (NW) 12:47:52 436.795
PCSat 26 Jan 12:43:53 12:48:14 24° 46° (NE) 12:52:40 145.827
BEESAT 2 26 Jan 12:45:06 12:48:27 23° 247° (WSW) 12:51:42 435.950
AIST 1 26 Jan 12:49:54 12:52:15 14° 292° (WNW) 12:54:25
Oscar 19 26 Jan 12:52:26 12:57:34 60° 259° (W) 13:02:44 437.125/150
PHONESAT 2.4 26 Jan 12:59:02 13:02:41 76° 185° (S) 13:06:21 2401.200-2431.200
HORYU 2 26 Jan 12:59:41 13:01:02 11° 62° (ENE) 13:02:38 437.375
ITAMSAT 1 26 Jan 13:01:15 13:06:19 61° 73° (ENE) 13:11:28 435.822/435.867
BEESAT 3 26 Jan 13:03:40 13:05:47 13° 250° (WSW) 13:07:43 437.485
TISAT 1 26 Jan 13:23:37 13:26:31 17° 294° (WNW) 13:29:18 437.305
DANDE 26 Jan 13:33:00 13:34:48 11° 49° (NE) 13:36:54 436.750
